{"data":{"norad_id":48117,"epoch":"2026-09-19T18:24:26.322912Z","epoch_age_seconds":92555,"freshness":"FRESH","line1":"1 48117U 21027AB  26262.76697133 -.00001038  00000+0 -21694-4 0  9992","line2":"2 48117  53.1608 329.2894 0001498  98.6518 261.4653 15.31698300302426","mean_motion":15.316983,"eccentricity":0.0001498,"inclination_deg":53.1608,"raan_deg":329.2894,"arg_perigee_deg":98.6518,"mean_anomaly_deg":261.4653,"bstar":-2.1694e-5,"rev_number":30242,"period_min":94.013292304366,"perigee_km":469.71910030886,"apogee_km":471.77102537489,"semimajor_km":6848.8820628419,"source":"CELESTRAK","updated_at":"2026-09-20T09:00:38.764828Z"}}